星链-4787 (STARLINK-4787 )

导读

STARLINK-4787是美国SpaceX公司星链星座的成员卫星,于2022年9月24日发射入轨。星链项目旨在构建全球低轨宽带互联网星座,为全球提供覆盖的高速网络服务。该卫星采用平板设计,配备氪工质霍尔推进器,具备自主避撞能力,设计寿命5至7年,退役后将主动离轨再入大气层烧毁。

基本信息
目录编号:
53904
目录名称:
STARLINK-4787
国际标识:
2022-119U
轨道中心:
EARTH
卫星名称:
星链-4787
卫星全名:
星链-4787 (STARLINK-4787 )
卫星状态:
在轨 (已飞行1362 天)
发射日期:
2022-09-24 UTC
国别 :
美国 (US)
星等 :
--
轨道信息
数据来源 国际轨道数据 AOE轨道数据
星历时间 2026-06-16T19:25:51+0800
21小时前
查看轨道信息
2026-06-16T05:00:00+0800
1天前
查看轨道信息
半长轴 6917.902km 6917.902km
偏心率 0.0001187 0.0001194
轨道倾角 53.159° 53.158°
近地点辐角 87.415° 94.705°
升交点赤经 240.158° 242.862°
平近点角 272.698° 237.559°
近地点 538.943km 538.939km
远地点 540.587km 540.591km
周期 95.438分钟 95.438分钟
每日圈数 15.088331 15.08833
详细信息
固有亮度:
5
最大亮度:
2.5
卫星平台:
Starlink v1.5
覆盖范围:
全球
运营商:
太空探索技术公司
运营商所在国:
美国
制造商(研发单位):
太空探索技术公司
制造商所在国:
美国
使用方式:
暂无
卫星简介
星链(Starlink)计划是由太空探索技术公司(SpaceX)提出的一个巨型低轨卫星互联网星座项目,计划在2019年至2024年间在太空搭建由约1.2万颗卫星组成的“星链”网络,其中1584颗将部署在地球上空550千米处的近地轨道,并从2020年开始工作。该卫星仍在工作。
2D轨道图
3D轨道图
轨道高度分析图
轨道倾角分析图
轨道综合分析图
查看轨道综合分析图